Location: Ciserano
(45.5833°N, 9.6000°E)
Time: 23:33:49
(UTC+00:00)

FALCON 9 DEB - Pass Details

Date: 18 June 2021
Orbit: 364 x 377 km, 53.0° (Epoch: 26 July)

Event Time Altitude Azimuth Distance (km) Brightness Sun altitude
Rises 01:23:13 0° 299° (WNW) 2,271 6.8 -15.8°
Reaches altitude 10° 01:25:32 10° 315° (NW) 1,414 5.9 -15.6°
Maximum altitude 01:28:10 23° 11° (N) 866 5.5 -15.4°
Drops below altitude 10° 01:30:47 10° 67° (ENE) 1,408 6.5 -15.1°
Sets 01:33:05 0° 82° (E) 2,258 7.3 -14.9°
